Regional Weather Roundup
Issued by NWS Grand Forks, ND

Home | Current Version | Previous Version | Graphics & Text | Print | Product List | Glossary On
Versions: 1 2 3 4 5 6 7 8 9 10 11 12 13 14 15 16 17 18 19 20 21 22 23 24 25 26 27 28 29 30 31 32 33 34 35 36 37 38 39 40 41 42 43 44 45 46 47 48 49 50
202
ASUS43 KFGF 240910
RWRFGF
PRAIRIE TO PINES  WEATHER ROUNDUP
NATIONAL WEATHER SERVICE EASTERN NORTH DAKOTA/GRAND FORKS ND
400 AM CDT SUN JUL 24 2016

 **SATELLITE DATA USED TO AUGMENT SKY COVER AT AUTOMATED STATIONS**
 *****  WEATHER ACROSS EASTERN NORTH DAKOTA  *****

CITY           SKY/WX    TMP DP  RH WIND       PRES   REMARKS
GRAND FORKS    CLEAR     63  60  90 W8        29.76S
GRAND FRKS AFB CLEAR     64  60  87 W7        29.78S
GRAND FRKS NWS   N/A     63 N/A N/A NW9         N/A
DEVILS LAKE    CLEAR     64  60  87 NW17G23   29.84S
FARGO          CLEAR     65  60  84 W12       29.81R
WAHPETON ARPT  SUNNY     64  59  82 W9        29.84R
$$

 ***** WEATHER ACROSS CENTRAL AND WESTERN NORTH DAKOTA  *****

CITY           SKY/WX    TMP DP  RH WIND       PRES   REMARKS
BISMARCK       CLEAR     62  57  83 W6        29.96R
MINOT          CLEAR     66  56  70 W12       29.91R
JAMESTOWN      CLEAR     63  59  87 W8        29.88S
MINOT AFB      CLEAR     60  57  90 W10       29.90R
GARRISON         N/A     60  58  92 NW9       29.94S
WILLISTON      CLEAR     60  53  77 W10       30.00R
DICKINSON      CLEAR     53  49  86 W8        30.04R
HETTINGER      CLEAR     52  48  86 CALM      30.09R
$$

 *****  OTHER AIRPORT OBSERVATIONS IN OUR AREA  *****

CITY           SKY/WX    TMP DP  RH WIND       PRES   REMARKS
WALHALLA       NOT AVBL
GRAFTON AIRPOR FAIR      64  63  94 W14       29.78R
VALLEY CITY AR   N/A     64  63  94 W13       29.88S
CANDO          NOT AVBL
CAVALIER APRT  FAIR      64  59  82 NW9       29.77R
GWINNER        FAIR      63  59  88 W9        29.88S
ROLLA            N/A     63  57  82 NW10      29.85S
 ***** THE ABOVE OBSERVATIONS ARE NON NWS ARE NOT QUALITY
       CONTROLLED AND MAY MIS-REPORT RAIN FOR SNOW...
$$

  *****  WEATHER ACROSS NORTHERN MINNESOTA  *****

CITY           SKY/WX    TMP DP  RH WIND       PRES   REMARKS
FLAG ISLAND    CLEAR     66  64  94 W15       29.67R
WARROAD        NOT AVBL
ROSEAU         CLEAR     64  61  88 W9        29.72R
HALLOCK        CLEAR     63  61  94 W8        29.74S
THF RVR FALLS  CLEAR     64  61  90 W10       29.78R
BAUDETTE       CLEAR     67  66  97 W7        29.71R
WASKISH        PTCLDY    70  66  88 W13G21    29.73S
CROOKSTON      CLEAR     64  61  88 W8        29.78R
STEPHEN NDAWN    N/A     64  61  88 W7          N/A
GREENBUSH NDAW   N/A     61  59  94 W5          N/A
$$
  *****  WEATHER ACROSS CENTRAL AND WEST MINNESOTA  *****

CITY           SKY/WX    TMP DP  RH WIND       PRES   REMARKS
FOSSTON        CLEAR     63  61  94 W7        29.79R
BEMIDJI        CLEAR     68  66  94 W7        29.77R
PARK RAPIDS    CLEAR     67  65  93 W7        29.79R
ELBOW LAKE     FAIR      67  65  94 NW8       29.83R
WADENA         CLEAR     66  66 100 W6        29.79S
DETROIT LAKES  CLEAR     68  63  83 W10       29.82R
MOORHEAD       CLEAR     66  61  82 W12       29.82R
FERGUS FALLS   CLEAR     66  64  94 NW12      29.83R
MORRIS MN      CLEAR     68  66  94 W8        29.83R
STAPLES        CLEAR     66  64  94 W5        29.79S
$$
  *****  WEATHER ELSEWHERE ACROSS MINNESOTA  *****

CITY           SKY/WX    TMP DP  RH WIND       PRES   REMARKS
DULUTH         CLOUDY    68  67  96 NW5       29.76R
INTRNTL FALLS  CLOUDY    68  65  90 SW5       29.69F
ELY            CLOUDY    64  64 100 S3        29.75R
CLOQUET        CLOUDY    64  63  94 NW3       29.77R FOG
WHEATON        NOT AVBL
BRAINERD       CLEAR     69  68  96 W8        29.78R
HIBBING        CLOUDY    63  63 100 CALM      29.76R FOG
ALEXANDRIA     CLEAR     70  68  93 W8        29.83R
SAINT CLOUD    CLEAR     71  71 100 NW6       29.77S
MINNEAPOLIS    CLOUDY    77  74  90 NW9       29.77R
$$

  *****  WEATHER ACROSS SOUTH DAKOTA  *****

CITY           SKY/WX    TMP DP  RH WIND       PRES   REMARKS
SIOUX FALLS    CLEAR     69  66  90 NW5       29.90R
BROOKINGS      CLEAR     68  67  96 CALM      29.90S
WATERTOWN      CLEAR     71  66  84 NW7       29.90S
HURON          CLEAR     65  61  87 W8        29.93R
SISSETON         N/A     69  60  73 NW9       29.85R
ABERDEEN       CLEAR     65  58  78 NW9       29.93R
MITCHELL       CLEAR     67  63  87 W7        29.93R
PIERRE         CLEAR     64  55  72 NW10      29.99R
MOBRIDGE       CLEAR     64  56  75 NW8       29.99R
RAPID CITY     CLOUDY    65  44  46 NW10      30.08F
$$

  *****  SOME WEATHER IN NEARBY STATES *****

CITY           SKY/WX    TMP DP  RH WIND       PRES   REMARKS
GLASGOW MT     CLEAR     57  51  80 SE6       30.02F
GREAT FALLS MT CLEAR     51  39  63 SW9       30.11S
CHEYENNE WY    CLEAR     66  49  54 SW10      30.19F
SCOTTSBLUFF NE CLEAR     66  56  70 SE3       30.08R
OMAHA NE       CLEAR     80  74  81 SE5       29.83S
DES MOINES IA  PTCLDY    80  75  84 S7        29.82S
DAVENPORT IA   CLOUDY    80  75  84 S10       29.88S
CHICAGO IL     CLOUDY    71  70  96 S9        29.90F
EAU CLAIRE WI  CLOUDY    71  70  96 NE3       29.78S
LA CROSSE WI   CLOUDY    76  72  87 SE6       29.79S
$$

  *****  SOME NATIONAL WEATHER *****

CITY           SKY/WX    TMP DP  RH WIND       PRES   REMARKS
LA GUARDIA NY  CLEAR     76  63  64 NE6       29.94R
RALEIGH NC     PTCLDY    75  72  90 CALM      30.00S
ATLANTA GA     PTCLDY    77  73  87 E3        30.03S
NEW ORLEANS LA PTCLDY    83  76  79 SW3       29.94S HX  91
OKLAHOMA CITY  PTCLDY    76  71  85 S8        29.92S
ALBUQUERQUE NM MOCLDY    80  50  34 CALM      30.13F
SALT LAKE CITY CLEAR     66  44  45 SW3       30.06R
LOS ANGELES CA PTCLDY    70  65  84 SE5       29.81S
BOISE ID       CLEAR     64  38  38 CALM      30.05S
SEATTLE WA     CLEAR     60  53  77 NE13      30.18F
$$

*** WEATHER ACROSS MANITOBA...SASKATCHEWAN AND ONTARIO ***
                ***ONTARIO***

CITY           SKY/WX    TMP DP  RH WIND       PRES   REMARKS
GERALDTON      CLOUDY    66  57  72 SE6       29.83F
THUNDER BAY    CLOUDY    64  59  82 E10       29.76F
SIOUX LOOKOUT  LGT RAIN  64  63  94 S9G20     29.65F
TORONTO        MOCLDY    70  59  68 N3        30.01R
BIG TROUT LK   LGT RAIN  63  61  94 SE8       29.68F
PICKLE LAKE    NOT AVBL
DRYDEN         CLOUDY    66  64  94 S13G20    29.66F
KENORA         CLOUDY    68  66  94 SW8       29.67S
$$
                *** MANITOBA***

CITY           SKY/WX    TMP DP  RH WIND       PRES   REMARKS
BRANDON        PTCLDY    57  55  94 W12       29.80R
DAUPHIN        CLEAR     61  57  88 W16G22    29.73R
ISLAND LAKE    LGT RAIN  61  61 100 E7        29.58S
PILOT MOUND      N/A     59  55  88 W6          N/A
THE PAS        CLOUDY    63  59  88 N8        29.71R
THOMPSON       LGT RAIN  61  59  94 N3        29.70S FOG
WINNIPEG       CLEAR     61  59  94 W10       29.71R
LYNN LAKE      CLEAR     55  54  94 MISG      29.75R
CHURCHILL      PTCLDY    54  52  94 N8        29.75S
GILLAM         LGT RAIN  59  59 100 VRB2      29.71F
$$
                ***SASKATCHEWAN***

CITY           SKY/WX    TMP DP  RH WIND       PRES   REMARKS
ESTEVAN        PTCLDY    57  55  94 W10       29.94R
KINDERSLEY     PTCLDY    57  52  82 W6        29.99S
LLOYDMINSTER   CLEAR     52  50  93 SW9       29.95S
PRINCE ALBERT  PTCLDY    57  55  94 W7        29.84R
REGINA         CLEAR     54  54 100 W8        29.94R
YORKTON        CLEAR     61  57  88 W12G18    29.81R
N. BATTLEFORD  CLEAR     54  52  94 NW6       29.95S
LA RONGE       MOCLDY    61  59  94 SW2       29.80S
SASKATOON      CLEAR     55  52  88 W10       29.92S
SWIFT CURRENT  CLEAR     54  52  94 SW10      30.01S
$$
NOTE: THESE ARE AUTOMATED STATIONS WITH LIMITED QUALITY CONTROL
      "FAIR" INDICATES FEW OR NO CLOUDS BELOW 12,000 FEET WITH NO
      SIGNIFICANT WEATHER AND/OR OBSTRUCTIONS TO VISIBILITY.
      SKY/WX - SKY CONDITION AND SIGNIFICANT WEATHER.
      TMP - AIR TEMPERATURE.    DP   - DEWPOINT TEMPERATURE.
      RH  - RELATIVE HUMIDITY.  PRES - PRESSURE.
      HX  - HEAT INDEX.         WCI  - WIND CHILL INDEX.
$




USA.gov is the U.S. government's official web portal to all federal, state and local government web resources and services.